Time,TemperatureF,DewpointF,PressureIn,WindDirection,WindDirectionDegrees,WindSpeedMPH,WindSpeedGustMPH,Humidity,HourlyPrecipIn,Conditions,Clouds,dailyrainin,SoftwareType,DateUTC
2013-07-27 00:02:00,62.0,59.0,30.04,WSW,255,4.0,8.0,90,0.00,,,0.09,,2013-07-27 04:02:00,
2013-07-27 00:12:00,62.0,59.0,30.04,SW,232,3.0,8.0,90,0.00,,,0.09,,2013-07-27 04:12:00,
2013-07-27 00:43:00,62.0,59.0,30.04,WSW,254,2.0,6.0,90,0.00,,,0.09,,2013-07-27 04:43:00,
2013-07-27 00:53:00,62.0,59.0,30.04,WSW,250,3.0,6.0,90,0.00,,,0.09,,2013-07-27 04:53:00,
2013-07-27 01:02:00,61.0,58.0,30.04,SW,224,2.0,5.0,90,0.00,,,0.09,,2013-07-27 05:02:00,
2013-07-27 01:32:00,60.0,58.0,30.00,SW,218,2.0,8.0,92,0.00,,,0.09,,2013-07-27 05:32:00,
2013-07-27 01:43:00,61.0,59.0,30.04,West,266,2.0,6.0,92,0.00,,,0.09,,2013-07-27 05:43:00,
2013-07-27 02:02:00,61.0,58.0,30.04,SW,214,2.0,8.0,91,0.00,,,0.09,,2013-07-27 06:02:00,
2013-07-27 02:33:00,60.0,57.0,30.04,SW,231,3.0,7.0,91,0.00,,,0.09,,2013-07-27 06:33:00,
2013-07-27 03:02:00,60.0,57.0,30.04,West,270,3.0,9.0,90,0.00,,,0.09,,2013-07-27 07:02:00,
2013-07-27 03:34:00,61.0,58.0,30.04,West,281,3.0,9.0,90,0.00,,,0.09,,2013-07-27 07:34:00,
2013-07-27 03:44:00,61.0,58.0,30.03,SW,230,3.0,7.0,89,0.00,,,0.09,,2013-07-27 07:44:00,
2013-07-27 03:52:00,60.0,57.0,30.03,WNW,289,2.0,4.0,90,0.00,,,0.09,,2013-07-27 07:52:00,
2013-07-27 04:02:00,60.0,58.0,30.03,NW,307,2.0,5.0,92,0.00,,,0.09,,2013-07-27 08:02:00,
2013-07-27 04:32:00,59.0,57.0,30.03,WNW,289,1.0,4.0,94,0.00,,,0.09,,2013-07-27 08:32:00,
2013-07-27 04:43:00,58.0,56.0,30.00,WSW,256,1.0,5.0,93,0.00,,,0.09,,2013-07-27 08:43:00,
2013-07-27 04:53:00,59.0,57.0,30.04,SW,225,1.0,3.0,94,0.00,,,0.09,,2013-07-27 08:53:00,
2013-07-27 05:02:00,58.0,56.0,30.04,WNW,291,1.0,2.0,94,0.00,,,0.09,,2013-07-27 09:02:00,
2013-07-27 05:33:00,58.0,57.0,30.05,WNW,286,1.0,3.0,95,0.00,,,0.09,,2013-07-27 09:33:00,
2013-07-27 05:52:00,58.0,57.0,30.05,SW,227,1.0,2.0,95,0.00,,,0.09,,2013-07-27 09:52:00,
2013-07-27 06:02:00,57.0,56.0,30.05,WNW,298,2.0,5.0,96,0.00,,,0.09,,2013-07-27 10:02:00,
2013-07-27 06:12:00,58.0,57.0,30.05,WNW,284,2.0,5.0,95,0.00,,,0.09,,2013-07-27 10:12:00,
2013-07-27 06:32:00,58.0,56.0,30.06,West,265,1.0,3.0,94,0.00,,,0.09,,2013-07-27 10:32:00,
2013-07-27 07:02:00,59.0,57.0,30.06,WSW,249,1.0,3.0,93,0.00,,,0.09,,2013-07-27 11:02:00,
2013-07-27 07:32:00,60.0,57.0,30.06,West,277,1.0,2.0,91,0.00,,,0.09,,2013-07-27 11:32:00,
2013-07-27 07:44:00,60.0,56.0,30.03,WNW,284,0.0,3.0,87,0.00,,,0.09,,2013-07-27 11:44:00,
2013-07-27 07:52:00,61.0,57.0,30.06,West,281,0.0,2.0,88,0.00,,,0.09,,2013-07-27 11:52:00,
2013-07-27 08:03:00,62.0,57.0,30.07,West,270,1.0,4.0,85,0.00,,,0.09,,2013-07-27 12:03:00,
2013-07-27 10:02:00,69.0,60.0,30.09,West,263,2.0,3.0,73,0.00,,,0.02,,2013-07-27 14:02:00,
2013-07-27 10:32:00,70.0,60.0,30.09,NW,317,3.0,6.0,70,0.00,,,0.01,,2013-07-27 14:32:00,
2013-07-27 11:02:00,71.0,59.0,30.08,WSW,242,2.0,5.0,67,0.00,,,0.01,,2013-07-27 15:02:00,
2013-07-27 11:12:00,71.0,60.0,30.08,NW,321,1.0,5.0,69,0.00,,,0.01,,2013-07-27 15:12:00,
2013-07-27 11:22:00,72.0,61.0,30.08,NNW,333,2.0,5.0,69,0.00,,,0.00,,2013-07-27 15:22:00,
2013-07-27 11:33:00,72.0,59.0,30.08,NW,312,2.0,6.0,64,0.00,,,0.00,,2013-07-27 15:33:00,
2013-07-27 11:44:00,73.0,59.0,30.09,WNW,298,4.0,8.0,61,0.00,,,0.00,,2013-07-27 15:44:00,
2013-07-27 11:53:00,73.0,58.0,30.08,WNW,301,4.0,8.0,59,0.00,,,0.00,,2013-07-27 15:53:00,
2013-07-27 12:02:00,73.0,58.0,30.04,North,360,2.0,8.0,60,0.00,,,0.00,,2013-07-27 16:02:00,
2013-07-27 12:23:00,73.0,57.0,30.08,WNW,298,2.0,9.0,58,0.00,,,0.00,,2013-07-27 16:23:00,
2013-07-27 12:33:00,74.0,61.0,30.08,WNW,303,2.0,7.0,65,0.00,,,0.00,,2013-07-27 16:33:00,
2013-07-27 12:43:00,74.0,55.0,30.08,SW,235,3.0,8.0,51,0.00,,,0.00,,2013-07-27 16:43:00,
2013-07-27 12:53:00,75.0,55.0,30.07,WSW,258,4.0,8.0,50,0.00,,,0.00,,2013-07-27 16:53:00,
2013-07-27 13:02:00,75.0,57.0,30.07,NW,321,4.0,8.0,53,0.00,,,0.00,,2013-07-27 17:02:00,
2013-07-27 13:12:00,75.0,57.0,30.07,SE,131,3.0,9.0,53,0.00,,,0.00,,2013-07-27 17:12:00,
2013-07-27 13:23:00,76.0,60.0,30.06,WNW,285,0.0,8.0,58,0.00,,,0.00,,2013-07-27 17:23:00,
2013-07-27 13:32:00,76.0,59.0,30.06,WSW,251,2.0,5.0,56,0.00,,,0.00,,2013-07-27 17:32:00,
2013-07-27 13:43:00,76.0,58.0,30.06,West,260,2.0,4.0,54,0.00,,,0.00,,2013-07-27 17:43:00,
2013-07-27 13:53:00,77.0,57.0,30.06,WSW,256,4.0,5.0,51,0.00,,,0.00,,2013-07-27 17:53:00,
2013-07-27 14:03:00,77.0,55.0,30.06,WNW,284,3.0,5.0,47,0.00,,,0.00,,2013-07-27 18:03:00,
2013-07-27 14:22:00,78.0,58.0,30.06,West,260,2.0,6.0,50,0.00,,,0.00,,2013-07-27 18:22:00,
2013-07-27 14:33:00,79.0,59.0,30.06,WNW,283,2.0,5.0,50,0.00,,,0.00,,2013-07-27 18:33:00,
2013-07-27 14:43:00,79.0,57.0,30.06,WNW,298,0.0,4.0,47,0.00,,,0.00,,2013-07-27 18:43:00,
2013-07-27 14:53:00,79.0,60.0,30.06,WNW,298,2.0,4.0,53,0.00,,,0.00,,2013-07-27 18:53:00,
2013-07-27 15:02:00,79.0,58.0,30.06,SW,231,2.0,5.0,49,0.00,,,0.00,,2013-07-27 19:02:00,
2013-07-27 15:12:00,80.0,60.0,30.05,West,263,2.0,2.0,50,0.00,,,0.00,,2013-07-27 19:12:00,
2013-07-27 15:23:00,79.0,57.0,30.01,NNW,339,1.0,11.0,47,0.00,,,0.00,,2013-07-27 19:23:00,
2013-07-27 15:32:00,79.0,59.0,30.06,WNW,301,3.0,10.0,50,0.00,,,0.00,,2013-07-27 19:32:00,
2013-07-27 15:43:00,80.0,59.0,30.05,West,259,2.0,4.0,48,0.00,,,0.00,,2013-07-27 19:43:00,
2013-07-27 15:53:00,80.0,60.0,30.04,SW,228,3.0,6.0,50,0.00,,,0.00,,2013-07-27 19:53:00,
2013-07-27 16:12:00,80.0,59.0,30.04,West,263,1.0,3.0,48,0.00,,,0.00,,2013-07-27 20:12:00,
2013-07-27 16:23:00,81.0,61.0,30.04,WSW,258,1.0,4.0,51,0.00,,,0.00,,2013-07-27 20:23:00,
2013-07-27 16:43:00,80.0,59.0,30.04,WSW,258,1.0,6.0,49,0.00,,,0.00,,2013-07-27 20:43:00,
2013-07-27 16:52:00,80.0,61.0,30.04,WSW,243,1.0,3.0,53,0.00,,,0.00,,2013-07-27 20:52:00,
2013-07-27 17:03:00,80.0,61.0,30.03,West,272,1.0,2.0,52,0.00,,,0.00,,2013-07-27 21:03:00,
2013-07-27 17:12:00,81.0,62.0,30.03,West,263,1.0,3.0,53,0.00,,,0.00,,2013-07-27 21:12:00,
2013-07-27 17:23:00,81.0,64.0,30.03,WNW,294,0.0,5.0,57,0.00,,,0.00,,2013-07-27 21:23:00,
2013-07-27 17:33:00,80.0,63.0,30.03,West,259,2.0,3.0,56,0.00,,,0.00,,2013-07-27 21:33:00,
2013-07-27 17:43:00,80.0,63.0,30.03,WSW,251,2.0,3.0,56,0.00,,,0.00,,2013-07-27 21:43:00,
2013-07-27 17:52:00,79.0,61.0,30.03,WSW,251,2.0,3.0,54,0.00,,,0.00,,2013-07-27 21:52:00,
2013-07-27 18:02:00,79.0,63.0,30.02,West,269,0.0,2.0,58,0.00,,,0.00,,2013-07-27 22:02:00,
2013-07-27 18:12:00,78.0,67.0,30.02,West,268,0.0,1.0,69,0.00,,,0.00,,2013-07-27 22:12:00,
2013-07-27 18:22:00,76.0,67.0,30.03,West,269,0.0,1.0,74,0.00,,,0.00,,2013-07-27 22:22:00,
2013-07-27 18:33:00,75.0,67.0,29.97,West,269,0.0,1.0,75,0.00,,,0.00,,2013-07-27 22:33:00,
2013-07-27 18:43:00,76.0,68.0,30.02,West,269,0.0,1.0,76,0.00,,,0.00,,2013-07-27 22:43:00,
2013-07-27 18:53:00,77.0,68.0,30.02,West,272,0.0,1.0,75,0.00,,,0.00,,2013-07-27 22:53:00,
2013-07-27 19:02:00,77.0,67.0,30.02,West,267,1.0,1.0,72,0.00,,,0.00,,2013-07-27 23:02:00,
2013-07-27 19:12:00,76.0,65.0,30.02,West,268,0.0,1.0,69,0.00,,,0.00,,2013-07-27 23:12:00,
2013-07-27 19:22:00,75.0,66.0,30.02,West,260,0.0,1.0,73,0.00,,,0.00,,2013-07-27 23:22:00,
2013-07-27 19:32:00,74.0,66.0,30.02,West,263,0.0,1.0,76,0.00,,,0.00,,2013-07-27 23:32:00,
2013-07-27 19:44:00,72.0,64.0,30.02,WNW,303,0.0,1.0,77,0.00,,,0.00,,2013-07-27 23:44:00,
2013-07-27 19:52:00,72.0,64.0,30.02,WNW,294,0.0,1.0,77,0.00,,,0.00,,2013-07-27 23:52:00,
2013-07-27 20:02:00,72.0,64.0,30.02,WNW,287,0.0,2.0,75,0.00,,,0.00,,2013-07-28 00:02:00,
2013-07-27 20:12:00,71.0,62.0,30.02,West,265,0.0,2.0,74,0.00,,,0.00,,2013-07-28 00:12:00,
2013-07-27 20:23:00,71.0,63.0,30.02,WNW,294,0.0,2.0,75,0.00,,,0.00,,2013-07-28 00:23:00,
2013-07-27 20:32:00,71.0,62.0,30.03,West,265,1.0,3.0,74,0.00,,,0.00,,2013-07-28 00:32:00,
2013-07-27 20:53:00,72.0,62.0,30.03,West,269,3.0,7.0,72,0.00,,,0.00,,2013-07-28 00:53:00,
2013-07-27 21:12:00,71.0,62.0,30.03,WSW,248,2.0,4.0,72,0.00,,,0.00,,2013-07-28 01:12:00,
2013-07-27 21:23:00,71.0,62.0,30.03,WSW,241,0.0,6.0,73,0.00,,,0.00,,2013-07-28 01:23:00,
2013-07-27 21:32:00,71.0,62.0,30.03,WSW,249,2.0,4.0,73,0.00,,,0.00,,2013-07-28 01:32:00,
2013-07-27 21:43:00,71.0,62.0,30.04,West,262,1.0,6.0,73,0.00,,,0.00,,2013-07-28 01:43:00,
2013-07-27 21:53:00,71.0,62.0,30.04,West,273,0.0,3.0,72,0.00,,,0.00,,2013-07-28 01:53:00,
2013-07-27 22:03:00,70.0,60.0,30.03,WNW,286,0.0,1.0,71,0.00,,,0.00,,2013-07-28 02:03:00,
2013-07-27 22:12:00,70.0,61.0,30.03,WSW,255,0.0,3.0,72,0.00,,,0.00,,2013-07-28 02:12:00,
2013-07-27 22:22:00,70.0,61.0,30.03,NW,318,0.0,4.0,74,0.00,,,0.00,,2013-07-28 02:22:00,
2013-07-27 22:32:00,69.0,61.0,30.03,West,259,1.0,4.0,75,0.00,,,0.00,,2013-07-28 02:32:00,
2013-07-27 22:53:00,69.0,61.0,30.03,West,260,0.0,3.0,77,0.00,,,0.00,,2013-07-28 02:53:00,
2013-07-27 23:03:00,69.0,61.0,30.04,NW,315,0.0,4.0,76,0.00,,,0.00,,2013-07-28 03:03:00,
2013-07-27 23:12:00,69.0,61.0,30.03,WSW,253,3.0,9.0,76,0.00,,,0.00,,2013-07-28 03:12:00,
2013-07-27 23:22:00,69.0,62.0,30.04,WSW,258,6.0,11.0,79,0.00,,,0.00,,2013-07-28 03:22:00,
2013-07-27 23:32:00,69.0,63.0,30.03,SW,234,6.0,12.0,81,0.00,,,0.00,,2013-07-28 03:32:00,
2013-07-27 23:42:00,69.0,63.0,30.03,WSW,258,5.0,18.0,81,0.00,,,0.00,,2013-07-28 03:42:00,
2013-07-27 23:53:00,68.0,63.0,30.03,SW,232,5.0,12.0,83,0.00,,,0.00,,2013-07-28 03:53:00,